Regional Weather Roundup
Issued by NWS

Home | Current Version | Previous Version | Text Only | Print | Product List | Glossary On
Versions: 1 2 3 4 5 6 7 8 9 10 11 12 13 14 15 16 17 18 19 20 21 22 23 24 25 26 27 28 29 30 31 32 33 34 35 36 37 38 39 40 41 42 43 44 45 46 47 48 49 50
000
ASUS46 KLOX 242311
RWRCA

SOUTHERN CALIFORNIA WEATHER ROUNDUP
NATIONAL WEATHER SERVICE OXNARD CALIFORNIA
400 PM PDT SUN MAY 24 2015

NOTE: "FAIR" INDICATES FEW OR NO CLOUDS BELOW 12,000 FEET WITH NO
SIGNIFICANT WEATHER AND/OR OBSTRUCTIONS TO VISIBILITY.

  -  STATIONS PRECEEDED BY AN ASTERISK (*) ARE NOT NWS OR FAA
     STATIONS AND ARE NOT SUBJECT TO NWS AND FAA QUALITY CONTROL.

CAZ041-042-087-250000-
LA AND ORANGE COUNTY COASTAL AREAS


CITY           SKY/WX    TMP DP  RH WIND       PRES   REMARKS
L.A. DOWNTOWN  SUNNY     68  53  58 MISG      29.96F
L.A. AIRPORT   MOSUNNY   65  53  65 W12G18    29.98F
LONG BEACH     PTSUNNY   69  52  54 S9        29.97F

CITY           SKY/WX    TMP DP  RH WIND       PRES   REMARKS
AVALON           N/A     64 N/A N/A MISG        N/A
FULLERTON      CLOUDY    72  51  47 VRB7      29.96F
HAWTHORNE      SUNNY     68  52  56 SW9G17    29.98F
*LOS ALAMITOS  FAIR      69  55  60 SW10      29.97F
SANTA ANA      MOSUNNY   67  52  58 SW8       29.98F
STA MONICA APT SUNNY     66  52  60 SW9       29.98F
*STA MON PIER    N/A     60  56  85 SW9       29.98F
TORRANCE       MOSUNNY   70  55  60 NW12      29.98
*UCLA            N/A     64  50  59 SW8       29.95F

$$

CAZ547-548-048-250000-
LA COUNTY VALLEYS AND INLAND EMPIRE


CITY           SKY/WX    TMP DP  RH WIND       PRES   REMARKS
BURBANK        MOSUNNY   69  50  50 S8        29.95F
VAN NUYS       SUNNY     73  50  44 SE12G17   29.95F

CITY           SKY/WX    TMP DP  RH WIND       PRES   REMARKS
CORONA AIRPORT CLEAR     69  52  54 W12G17    29.97F
*CHATSWORTH      N/A     72  52  49 E10       29.93F
CHINO          PTSUNNY   69  52  54 W14       29.97F
MARCH AFB      PTSUNNY   66  52  60 NW10      29.97S
*NORTHRIDGE      N/A     72  48  43 SE6G13      N/A
ONTARIO        PTSUNNY   70  50  49 SW13G21   29.96F
*PASADENA        N/A     68  55  64 CALM        N/A
POMONA         CLOUDY    64  50  59 MISG      30.00F
RIVERSIDE      PTSUNNY   69  52  54 W12G20    29.96F
SAN BERNARDINO CLOUDY    64  48  55 W9        29.97F HAZE
*WHITEMAN AP   MOSUNNY   68  50  52 MISG      30.00
*WOODLAND HILL   N/A     72  50  46 SE7         N/A

$$

CAZ054-055-250000-
LA AND SAN BERNARDINO COUNTY MOUNTAINS


CITY           SKY/WX    TMP DP  RH WIND       PRES   REMARKS
*BIG BEAR AIRP CLEAR     61  32  33 NE13G18   30.06F
SANDBERG       PTSUNNY   65  46  50 VRB3      30.03S

$$

CAZ028-029-059-060-099-250000-
ANTELOPE VALLEY AND SURROUNDING AREAS


CITY           SKY/WX    TMP DP  RH WIND       PRES   REMARKS
LANCASTER      SUNNY     76  47  35 W25G33    29.90F
PALMDALE       SUNNY     77  45  32 SW18G28   29.91S

CITY           SKY/WX    TMP DP  RH WIND       PRES   REMARKS
29 PALMS       MOSUNNY   82  39  21 VRB3      29.90F
BARSTOW/DAGGET SUNNY     84  36  18 VRB3G17   29.82F
BISHOP         MOSUNNY   77  39  25 CALM      29.88F
CHINA LAKE     SUNNY     86  37  17 VRB7      29.82F
EDWARDS AFB    MOSUNNY   83  44  25 SW17G25   29.85F
MOJAVE         FAIR      77  46  33 W22G29    29.90S
NEEDLES        SUNNY     89  37  16 VRB5      29.77F
VICTORVILLE    SUNNY     81  37  21 SW6       29.89F

$$

CAZ039-040-250000-
VENTURA AND SANTA BARBARA COUNTY COAST


CITY           SKY/WX    TMP DP  RH WIND       PRES   REMARKS
CAMARILLO      SUNNY     68  51  54 W7        29.97F
OXNARD AIRPORT SUNNY     67  50  54 W10       29.97F
*POINT MUGU    MOSUNNY   68  51  54 W9        29.98F
SBA APT/GOLETA SUNNY     69  50  50 SW8       29.95F
*SANTA BARBARA   N/A     74  49  40 NE3       30.03F
*VENTURA         N/A     70  49  47 SW5       29.56S

$$

CAZ044-045-250000-
VENTURA COUNTY VALLEYS


CITY           SKY/WX    TMP DP  RH WIND       PRES   REMARKS
*SIMI VALLEY     N/A     70  53  55 W3        29.91F
*OJAI            N/A     72  53  50 W2        29.89F
*FILLMORE        N/A     72  55  54 W5        29.85F

$$

CAZ053-250000-
VENTURA COUNTY MOUNTAINS


CITY           SKY/WX    TMP DP  RH WIND       PRES   REMARKS

$$

CAZ034-035-036-250000-
CENTRAL COAST AND SANTA YNEZ VALLEY


CITY           SKY/WX    TMP DP  RH WIND       PRES   REMARKS
SAN LUIS OBISP SUNNY     68  50  52 NW15      29.97F
SANTA MARIA    SUNNY     67  51  56 NW14      29.99F

CITY           SKY/WX    TMP DP  RH WIND       PRES   REMARKS
*CAL POLY SLO    N/A     68  54  60 W7          N/A
*PISMO BEACH     N/A     60  53  80 SW10      29.98F
*SANTA YNEZ    FAIR      72  46  40 W13       29.96F

$$

CAZ037-038-051-250000-
SAN LUIS OBISPO COUNTY INTERIOR AND CUYAMA VALLEY


CITY           SKY/WX    TMP DP  RH WIND       PRES   REMARKS
*CUYAMA          N/A     75  47  36 NE6       29.88F
PASO ROBLES    SUNNY     80  49  33 SW12      29.92F

$$

CAZ032-033-061-250000-
SOUTHERN DESERTS


CITY           SKY/WX    TMP DP  RH WIND       PRES   REMARKS
BLYTHE         SUNNY     85  42  22 SW7       29.80F
IMPERIAL       SUNNY     87  44  22 VRB3      29.78F
PALM SPRINGS   MOSUNNY   84  48  28 NW22G29   29.80F
THERMAL        SUNNY     91  45  20 NW6       29.74F

$$

ELSEWHERE ACROSS THE WESTERN UNITED STATES AND MEXICO


CITY           SKY/WX    TMP DP  RH WIND       PRES   REMARKS
DENVER, CO     PTSUNNY   58  38  47 W5        29.82F
GRAND CANYON,  PTSUNNY   56  40  55 W14       30.02F
HONOLULU, HI   PTSUNNY   81  57  44 N12G21    30.04F
KAHULUI, MAUI  MOSUNNY   81  63  54 N12       30.06F
LAKE TAHOE, CA CLOUDY    64  43  46 CALM      30.04F
LAS VEGAS, NV  PTSUNNY   80  45  28 SW15      29.78F
MAMMOTH LAKES, PTSUNNY   64  34  32 CALM      30.05F
MEXICO CITY, M PTSUNNY   64  48  55 NE25      30.27
PHOENIX, AZ    MOSUNNY   84  37  18 S5        29.80F
PORTLAND, OR   CLOUDY    64  50  60 VRB3      30.07F
RENO, NV       PTSUNNY   74  42  31 VRB6      29.95F
SALT LAKE CITY PTSUNNY   64  44  48 W7        29.89S
SAN DIEGO, CA  PTSUNNY   67  49  52 NW10      30.00F
SAN FRANCISCO, PTSUNNY   58  49  72 W17G25    30.00F
SAN JOSE, CA   MOSUNNY   67  52  58 NW16G23   29.97F
SEATTLE, WA    CLOUDY    63  50  62 SW6       30.07F
TIJUANA, MEX   PTSUNNY   66  46  48 NW9       30.00

$$

STATION/POSITION TIME  TEMP    WIND        PRES    VSBY  WAVE
                       AIR SEA DIR/SP/G                  HT/PER
                 (UTC) (F)     (DEG/KT/KT) (MB)    (MI)  (FT/S)
POINT ARGUELLO B NOT AVBL
WEST SANTA BARBA 2250   56 55  310/ 17/ 21 1014.6F         5/ 8
POINT CONCEPTION NOT AVBL
EAST SANTA BARBA 2200   57 58  270/ 14/ 17 1015.9F
SANTA MONICA BAY 2250   60 63  280/  6/  8 1015.2F


USA.gov is the U.S. government's official web portal to all federal, state and local government web resources and services.